Track COSMOS 2502 now! 10-day predictions COSMOS 2502 is classified as:
1 40358U 14086A 25045.15094887 .00000046 00000-0 85971-4 0 9991 2 40358 67.1514 115.3997 0008184 265.9044 94.1106 13.97725803517450